Date,TemperatureHighF,TemperatureAvgF,TemperatureLowF,DewpointHighF,DewpointAvgF,DewpointLowF,HumidityHigh,HumidityAvg,HumidityLow,PressureMaxIn,PressureMinIn,WindSpeedMaxMPH,WindSpeedAvgMPH,GustSpeedMaxMPH,PrecipitationSumIn
2013-4-1,75.8,62.1,53.0,59.0,54.3,49.0,97,79,40,30.07,29.92,4,1,7,0.00
2013-4-2,79.6,63.4,49.2,57.0,52.1,47.0,93,70,42,30.09,29.95,5,1,9,0.00
2013-4-3,63.4,53.3,47.7,56.0,50.6,46.0,96,91,71,30.01,29.80,9,2,15,1.15
2013-4-4,52.6,49.1,45.9,50.0,47.3,44.0,96,93,87,30.02,29.90,3,1,8,0.01
2013-4-5,66.4,51.6,44.2,50.0,46.0,42.0,94,83,54,30.16,30.02,5,2,11,0.00
2013-4-6,74.6,58.7,42.1,54.0,48.2,41.0,96,72,42,30.12,29.99,6,2,12,0.00
2013-4-7,76.5,65.7,52.9,60.0,56.3,52.0,96,74,50,30.07,29.94,8,2,12,0.00
2013-4-8,79.9,69.9,60.2,66.0,62.2,59.0,96,78,55,29.98,29.90,8,3,13,0.00
2013-4-9,83.9,75.1,69.6,72.0,68.9,66.0,91,81,62,29.97,29.87,13,4,16,0.00
2013-4-10,81.6,74.5,70.9,71.0,68.7,67.0,90,82,66,29.91,29.77,9,3,13,0.00
2013-4-11,75.8,62.4,47.7,71.0,59.4,46.0,95,90,81,29.83,29.60,8,2,12,0.74
2013-4-12,74.5,56.5,41.1,50.0,45.1,40.0,97,71,31,29.99,29.81,5,1,9,0.00
2013-4-13,80.1,64.8,47.5,54.0,47.4,44.0,90,58,29,30.02,29.85,6,1,9,0.00
2013-4-14,74.6,62.8,56.2,64.0,58.4,54.0,96,86,64,29.88,29.71,10,1,11,1.82
2013-4-15,82.9,69.3,58.9,73.0,65.6,58.0,97,89,69,29.94,29.79,5,1,8,0.00
2013-4-16,84.4,76.1,70.7,72.0,70.7,69.0,96,84,61,30.04,29.93,8,2,10,0.01
2013-4-17,85.1,75.7,70.1,72.0,69.4,68.0,93,82,61,30.05,29.90,6,2,10,0.00
2013-4-18,79.7,72.7,56.5,72.0,68.4,54.0,93,86,75,29.90,29.71,8,3,15,0.23
2013-4-19,59.9,51.2,43.5,54.0,42.6,39.0,94,74,47,30.17,29.83,6,2,13,0.13
2013-4-20,70.0,54.3,38.4,46.0,40.3,35.0,93,64,35,30.25,30.10,7,1,9,0.00
2013-4-21,74.8,58.9,43.1,49.0,43.8,40.0,90,61,33,30.22,30.08,4,0,8,0.00
2013-4-22,80.3,64.3,46.5,61.0,51.8,44.0,91,67,38,30.12,29.97,4,1,6,0.00
2013-4-23,82.4,71.1,63.7,66.0,63.6,61.0,90,78,55,30.05,29.92,5,2,9,0.00
2013-4-24,68.6,60.9,52.3,66.0,58.4,49.0,95,91,87,30.19,29.96,5,2,9,0.94
2013-4-25,68.8,56.8,48.9,52.0,47.9,42.0,95,75,41,30.30,30.18,5,1,9,0.00
2013-4-26,79.4,64.7,51.0,63.0,54.5,44.0,91,71,50,30.26,30.15,4,1,7,0.00
2013-4-27,80.9,71.5,63.5,68.0,65.5,61.0,95,82,64,30.16,30.02,5,1,9,0.00
2013-4-28,73.8,69.3,62.6,69.0,65.3,60.0,96,87,72,30.07,29.94,5,1,12,0.05
2013-4-29,85.8,69.3,55.2,65.0,59.0,54.0,97,74,38,30.00,29.88,2,0,4,0.00
2013-4-30,76.6,66.8,60.6,68.0,63.9,59.0,97,91,73,29.95,29.88,2,0,7,0.30